Dewpoint
31 31 30 28 30 26 27 17 19 21 21 22 40 44 47 43 39 43 47 50 52 54 57 59 59 59 61 66 68 70 70 72 73 73 70 70 71 73 72 73 73 75 73 75
29 28 30 27 26 17 19 19 20 21 22 18 41 45 49 48 46 48 48 48 49 50 56 60 60 59 59 67 69 70 72 73 72 72 73 73 76 72 73 76 76 74 75 74
27 26 23 24 16 14 18 19 20 20 21 19 30 53 52 51 51 51 49 48 49 49 55 60 61 60 61 68 70 70 72 74 71 73 72 73 73 77 75 74 74 73 75 75
22 25 23 19 15 16 16 19 18 18 20 20 21 46 49 52 53 54 53 50 45 47 51 59 59 61 61 65 71 73 72 73 73 73 73 71 70 69 72 73 73 74 75 74
15 17 22 19 14 15 16 17 18 20 20 20 26 41 46 54 52 52 55 55 51 48 47 49 55 61 61 64 65 71 74 75 73 74 74 73 73 71 73 75 75 77 78 76
14 14 15 17 15 16 14 16 18 20 20 19 17 42 46 48 48 52 55 57 57 56 54 53 55 62 62 64 65 67 74 76 76 76 74 73 75 74 75 73 75 73 73 73
13 12 10 10 12 15 15 16 18 26 24 19 33 34 43 44 49 50 55 57 59 60 61 57 58 61 63 65 65 67 74 75 76 75 75 75 74 76 75 75 73 73 71 72
8 3 6 10 12 14 17 17 18 31 25 23 41 38 45 47 49 50 53 56 59 60 61 62 63 64 68 68 67 68 72 75 75 75 75 75 77 74 73 74 73 71 73 73
14 23 13 19 19 19 22 23 20 21 20 19 41 44 48 47 48 49 50 51 53 56 59 61 63 65 68 68 70 70 70 72 73 72 75 75 75 76 74 76 75 74 73 71
19 30 32 24 21 22 22 26 23 26 28 29 38 46 47 50 48 49 49 50 51 52 54 56 59 62 65 68 69 70 69 70 70 71 72 74 75 75 75 77 75 76 76 75
18 20 30 33 26 23 25 28 34 30 39 42 38 47 53 53 55 48 49 50 50 51 52 54 57 58 61 63 65 67 67 70 70 70 72 73 73 73 75 75 75 75 75 75
20 16 21 27 28 28 30 36 38 36 44 45 37 44 54 53 52 47 48 48 49 50 50 50 53 56 57 59 61 62 65 65 68 70 71 72 73 72 72 73 75 75 75 76
27 23 19 20 27 39 35 35 38 35 37 39 36 50 57 49 47 48 47 49 50 49 50 51 52 57 58 59 62 60 62 65 66 70 69 71 72 70 72 72 73 73 73 75
43 26 29 34 42 46 40 36 39 39 28 31 36 46 48 47 47 46 46 47 46 48 50 52 53 56 59 61 63 64 63 64 65 66 66 69 68 70 72 70 72 71 73 73
30 28 35 45 45 43 37 37 44 46 34 30 30 31 47 48 47 45 44 44 45 46 47 52 51 55 58 59 62 62 62 62 63 64 64 66 69 70 72 72 72 71 72 72
30 32 32 41 42 46 44 34 38 39 30 30 32 42 48 48 46 42 42 44 45 48 48 49 52 55 57 59 61 61 62 62 63 63 64 66 68 69 70 71 71 72 71 72
32 31 36 35 39 46 42 34 30 30 32 33 32 42 44 42 41 43 44 45 47 46 47 50 53 57 59 59 60 59 60 61 62 64 64 65 66 67 68 69 70 70 70 71
32 37 35 32 35 29 30 36 33 32 32 30 30 41 43 44 44 43 47 47 47 47 49 54 55 57 59 57 58 60 59 60 61 62 63 63 65 65 66 67 68 69 70 70
28 31 30 29 28 30 28 35 32 30 30 29 28 37 39 43 43 46 45 46 47 48 51 51 50 51 57 58 59 59 59 58 59 60 62 61 61 62 64 64 66 67 68 68
32 36 34 33 29 28 35 33 32 28 28 27 34 37 39 40 36 43 44 45 46 46 47 47 48 49 50 55 54 56 55 56 57 59 60 61 61 61 61 62 64 65 67 68
35 36 31 30 29 30 37 35 33 29 40 41 40 42 42 42 46 44 43 46 46 44 44 48 50 51 53 54 53 54 54 55 58 58 58 60 60 61 60 61 62 64 65 66
33 33 32 32 33 32 40 37 36 48 45 45 44 45 44 45 42 41 45 46 43 43 45 49 50 52 52 53 52 53 54 56 57 57 57 57 59 59 57 60 61 63 64 65
31 35 39 41 43 47 45 45 46 44 47 45 45 45 45 41 41 43 44 43 41 44 50 50 50 52 52 53 53 53 54 56 56 54 53 56 58 58 59 60 61 61 62 64
40 38 38 39 43 43 43 44 44 44 46 47 45 44 41 41 41 43 42 40 44 48 50 50 52 52 53 54 54 54 54 55 54 54 53 53 55 55 58 60 60 61 61 61
42 41 38 37 46 45 43 46 45 46 47 47 46 43 42 41 42 40 40 43 47 49 50 52 53 52 53 53 53 53 54 53 52 52 53 53 53 56 58 62 63 63 62 62
35 39 37 36 48 50 46 46 46 48 48 47 45 43 44 40 39 38 40 46 48 49 51 52 52 52 52 52 51 53 53 53 53 52 52 53 54 55 57 61 62 59 55 53
Lifted_Index
3 3 1 0 -0 -0 -0 -1 -1 -0 1 1 -0 -2 -2 -1 -1 -2 -3 -3 -3 -3 -3 -3 -3 -3 -4 -4 -4 -5 -5 -6 -6 -5 -5 -5 -5 -5 -4 -4 -4 -4 -4 -3
3 2 1 0 0 0 0 -0 -1 -0 1 1 -1 -2 -3 -2 -2 -3 -3 -3 -3 -3 -4 -4 -4 -4 -4 -5 -5 -5 -5 -5 -5 -5 -5 -5 -5 -5 -5 -4 -4 -4 -4 -4
2 1 0 1 1 1 0 -0 -0 0 1 0 -1 -2 -3 -3 -3 -4 -3 -3 -3 -3 -4 -5 -4 -4 -4 -5 -6 -6 -6 -6 -5 -5 -5 -5 -5 -5 -5 -5 -5 -5 -5 -5
1 0 0 1 1 1 -0 -0 -0 0 1 0 -1 -1 -2 -3 -4 -4 -4 -4 -3 -2 -3 -4 -4 -4 -5 -6 -7 -7 -7 -6 -6 -6 -6 -5 -5 -5 -6 -6 -6 -6 -6 -5
0 0 0 1 1 1 0 0 0 0 0 -0 -1 -0 -1 -2 -3 -5 -5 -5 -4 -3 -2 -3 -3 -4 -5 -6 -7 -8 -8 -8 -7 -7 -6 -6 -6 -6 -6 -6 -6 -6 -6 -6
0 0 1 1 1 1 1 0 0 -0 -0 -0 -0 0 -0 -1 -3 -4 -5 -6 -5 -5 -4 -3 -4 -5 -5 -6 -7 -8 -9 -9 -9 -8 -7 -7 -7 -7 -6 -6 -6 -6 -6 -6
0 1 1 2 2 1 1 0 -0 -1 -1 -1 -1 -0 -0 -1 -3 -4 -5 -5 -6 -6 -6 -5 -5 -6 -6 -7 -7 -7 -8 -9 -9 -9 -8 -8 -7 -7 -7 -6 -5 -5 -5 -5
-0 0 1 1 1 1 0 -0 -1 -1 -1 -1 -1 -1 -1 -2 -3 -4 -4 -5 -5 -6 -6 -6 -7 -7 -7 -7 -7 -7 -8 -8 -8 -8 -8 -8 -8 -8 -7 -6 -6 -5 -5 -5
-1 -0 -0 0 1 1 -0 -1 -1 -1 -1 -1 -1 -1 -1 -2 -3 -3 -3 -3 -3 -4 -5 -5 -6 -7 -7 -8 -7 -7 -7 -7 -8 -8 -7 -8 -8 -8 -8 -7 -7 -6 -5 -5
-1 -0 -0 0 1 0 0 -0 -0 -0 -0 -1 -1 -1 -1 -2 -3 -3 -3 -2 -2 -2 -2 -3 -4 -5 -5 -6 -7 -7 -7 -7 -7 -7 -7 -7 -7 -7 -7 -7 -7 -7 -6 -6
0 -0 -0 0 0 0 0 0 0 0 0 -0 -0 -1 -1 -1 -2 -2 -2 -1 -1 -0 -0 -1 -1 -2 -3 -4 -4 -5 -5 -6 -6 -6 -6 -6 -6 -7 -7 -7 -7 -7 -6 -6
0 0 -0 -0 -0 -0 -0 0 0 0 0 0 -1 -1 -1 -1 -2 -1 -1 -0 0 1 1 1 1 1 -0 -1 -2 -2 -3 -4 -4 -5 -5 -5 -5 -6 -6 -6 -6 -6 -6 -6
1 0 -0 -0 -0 -0 -0 -0 -0 -0 0 -0 -1 -2 -2 -1 -1 -0 1 1 2 2 3 3 2 2 1 1 0 -0 -1 -2 -2 -3 -3 -4 -4 -4 -5 -5 -5 -6 -6 -6
1 1 -0 -0 -0 -0 -0 0 0 -0 -0 -0 -1 -2 -2 -1 -0 1 2 2 3 3 3 3 3 3 3 2 2 1 1 1 -0 -1 -2 -2 -3 -4 -4 -4 -4 -5 -5 -5
2 1 -0 -0 0 1 0 0 1 0 -0 -0 -0 -1 -2 -1 1 2 3 4 4 4 4 4 4 4 4 4 3 3 3 2 2 1 -0 -1 -2 -3 -4 -4 -4 -4 -4 -5
1 1 -0 -1 -0 0 -0 -0 0 -0 -0 0 0 -1 -1 0 2 3 4 4 5 5 5 5 5 5 5 5 4 4 4 4 3 2 1 -0 -2 -3 -3 -3 -3 -4 -4 -4
0 -0 -1 -1 -1 -0 -1 -1 -0 -0 -0 0 1 0 1 2 3 4 4 5 5 5 6 6 5 5 5 5 5 5 5 5 4 3 2 1 -0 -1 -2 -2 -2 -3 -3 -4
-0 -0 -0 -0 -0 -1 -1 -0 -0 0 0 1 2 2 2 3 4 4 5 5 5 6 6 6 5 5 5 5 6 6 6 6 5 4 3 3 2 1 0 -0 -1 -2 -2 -3
-0 0 0 0 0 -0 -0 -0 1 1 2 3 3 3 3 3 4 5 5 5 6 6 6 6 6 6 6 6 6 6 6 6 6 5 4 4 4 4 3 2 1 -0 -1 -2
-0 -0 0 1 0 -0 -0 1 1 2 2 3 3 3 3 4 4 5 6 6 6 6 7 7 7 7 7 7 7 7 7 7 6 6 6 6 6 5 5 4 2 1 -0 -1
-0 -0 0 0 0 -0 0 1 2 1 2 2 3 3 3 4 4 5 6 6 6 7 7 7 7 7 7 7 7 7 7 7 7 7 7 7 6 6 6 5 4 2 1 -0
0 0 0 0 0 0 1 1 1 1 1 2 3 3 4 4 5 5 5 6 7 7 7 6 6 6 7 7 7 7 7 7 7 7 7 7 7 7 7 6 5 3 1 0
1 1 0 -0 0 1 1 1 1 1 2 2 3 4 5 5 6 6 6 6 7 6 6 6 6 6 6 6 6 6 6 6 6 6 7 7 7 7 7 6 5 4 2 1
1 1 1 1 1 1 1 1 2 2 2 3 4 5 5 6 6 6 7 7 7 6 6 5 5 5 5 5 5 6 6 6 6 6 6 7 7 7 6 5 4 3 2 1
1 1 2 1 1 1 1 1 2 2 3 3 4 5 6 7 7 8 8 8 7 6 6 5 5 5 5 5 5 5 6 6 5 5 6 6 6 6 5 4 3 2 2 1
1 1 2 1 1 0 1 1 2 2 3 4 5 6 6 7 8 9 9 8 7 7 6 5 5 5 5 5 5 5 5 5 5 5 5 6 6 6 5 4 3 2 1 1